This demonstration page uses our WeatherBlox Daily Observations layout. Learn more.

Left ArrowRight Arrow

41.86663, -103.66717

Hourly Observations for October 3, 2018

Temp ( °F °C ) Dew Point ( °F °C ) Humidity (%) Winds ( mph kmh ) Pressure ( in mb ) Visibility ( mi km ) Precip ( " mm )
12:53 am 00:53 Clear 58 14.4 51 10.6 78 78 E 8 13 29.59 1002 10 16 0.00 0.00
1:53 am 01:53 Clear 56 13.3 50 10 81 81 NE 5 7 29.59 1002 10 16 0.00 0.00
2:53 am 02:53 Clear 55 12.8 50 10 83 83 N 6 9 29.57 1001 10 16 0.00 0.00
3:53 am 03:53 Clear 50 10 48 8.9 93 93 Calm 29.58 1002 10 16 0.00 0.00
4:53 am 04:53 Clear 50 10 48 8.9 93 93 Calm 29.58 1002 10 16 0.00 0.00
5:53 am 05:53 Clear 50 10 48 8.9 93 93 SSW 5 7 29.56 1001 10 16 0.00 0.00
6:53 am 06:53 Clear 65 18.3 50 10 59 59 W 15 24 29.54 1001 10 16 0.00 0.00
7:53 am 07:53 Sunny 67 19.4 50 10 55 55 W 14 22 29.59 1002 10 16 0.00 0.00
8:53 am 08:53 Sunny 73 22.8 49 9.4 43 43 W 22 35 29.61 1003 10 16 0.00 0.00
9:53 am 09:53 Sunny 76 24.4 47 8.3 36 36 W 29 46 29.63 1004 10 16 0.00 0.00
10:53 am 10:53 Sunny 80 26.7 46 7.8 30 30 W 29 46 29.65 1004 10 16 0.00 0.00
11:53 am 11:53 Sunny 82 27.8 43 6.1 25 25 W 24 39 29.67 1005 10 16 0.00 0.00
12:53 pm 12:53 Sunny 83 28.3 42 5.6 24 24 W 29 46 29.68 1005 10 16 0.00 0.00
1:27 pm 13:27 Sunny 76 24.4 48 8.9 37 37 N 35 56 29.62 1003 10 16 0.00 0.00
1:53 pm 13:53 Sunny 73 22.8 46 7.8 38 38 N 26 43 29.77 1008 10 16 0.00 0.00
2:53 pm 14:53 Sunny 70 21.1 44 6.7 39 39 N 21 33 29.85 1011 10 16 0.00 0.00
3:53 pm 15:53 Sunny 68 20 42 5.6 39 39 NNW 23 37 29.91 1013 10 16 0.00 0.00
4:53 pm 16:53 Sunny 65 18.3 39 3.9 39 39 NNW 17 28 29.97 1015 10 16 0.00 0.00
5:53 pm 17:53 Sunny 61 16.1 37 2.8 41 41 N 17 28 30.02 1017 10 16 0.00 0.00
6:53 pm 18:53 Clear 56 13.3 37 2.8 49 49 NNE 7 11 30.04 1017 10 16 0.00 0.00
7:53 pm 19:53 Clear 50 10 33 0.6 52 52 NNE 10 17 30.08 1019 10 16 0.00 0.00
8:53 pm 20:53 Clear 48 8.9 32 0 54 54 NE 13 20 30.09 1019 10 16 0.00 0.00
9:53 pm 21:53 Clear 44 6.7 31 -0.6 60 60 ENE 10 17 30.12 1020 10 16 0.00 0.00
10:53 pm 22:53 Clear 43 6.1 31 -0.6 63 63 E 6 9 30.15 1021 10 16 0.00 0.00
11:53 pm 23:53 Clear 42 5.6 30 -1.1 62 62 E 7 11 30.16 1022 10 16 0.00 0.00

Powered by AerisWeather